This is the latest recevied weather packets stored in our database for station/object KJ4EBE. If no packets are shown the sender has not sent any weather packets the latest 10 day(s).
| Time | Temp. | Humidity | Pressure | Rain* | Wind** | Luminosity | Snow |
|---|---|---|---|---|---|---|---|
| 1777626380 | 13.89° C | 99% | 1013 hPa | 0 mm | - | 0 W/m² | - |
| 1777626078 | 13.89° C | 99% | 1013 hPa | 0.51 mm | - | 0 W/m² | - |
| 1777625773 | 13.89° C | 99% | 1013.3 hPa | 0.51 mm | - | 0 W/m² | - |
| 1777625469 | 13.89° C | 99% | 1013.5 hPa | 0 mm | - | 0 W/m² | - |
| 1777625164 | 13.89° C | 99% | 1013.7 hPa | 0.51 mm | - | 0 W/m² | - |
| 1777624861 | 13.89° C | 99% | 1013.8 hPa | 1.27 mm | - | 0 W/m² | - |
| 1777624557 | 13.89° C | 99% | 1014.2 hPa | 1.27 mm | - | 0 W/m² | - |
| 1777624251 | 13.89° C | 99% | 1014.2 hPa | 1.27 mm | - | 0 W/m² | - |
| 1777623950 | 13.89° C | 99% | 1014.4 hPa | 1.27 mm | - | 0 W/m² | - |
| 1777623646 | 13.89° C | 99% | 1014.6 hPa | 1.27 mm | - | 0 W/m² | - |
| 1777623345 | 14.44° C | 99% | 1014.5 hPa | 0.51 mm | - | 0 W/m² | - |
| 1777623041 | 14.44° C | 99% | 1014.2 hPa | 0 mm | - | 0 W/m² | - |
| 1777622738 | 14.44° C | 99% | 1014.1 hPa | 0.51 mm | - | 0 W/m² | - |
| 1777622434 | 14.44° C | 99% | 1013.9 hPa | 1.27 mm | - | 0 W/m² | - |
| 1777622131 | 14.44° C | 99% | 1013.8 hPa | 2.29 mm | - | 0 W/m² | - |
| 1777621827 | 14.44° C | 99% | 1013.5 hPa | 2.29 mm | - | 0 W/m² | - |
| 1777621523 | 14.44° C | 99% | 1013.2 hPa | 2.29 mm | - | 0 W/m² | - |
| 1777621220 | 14.44° C | 99% | 1012.8 hPa | 2.29 mm | - | 0 W/m² | - |
| 1777620916 | 14.44° C | 99% | 1012.9 hPa | 1.78 mm | - | 0 W/m² | - |
| 1777620612 | 14.44° C | 99% | 1013.4 hPa | 0.51 mm | - | 0 W/m² | - |
| 1777620308 | 14.44° C | 99% | 1013.9 hPa | 0 mm | - | 0 W/m² | - |
| 1777620005 | 14.44° C | 99% | 1014 hPa | 0 mm | - | 0 W/m² | - |
| 1777619701 | 14.44° C | 99% | 1014.5 hPa | 0 mm | - | 0 W/m² | - |
| 1777619396 | 14.44° C | 99% | 1014.7 hPa | 0 mm | - | 0 W/m² | - |
| 1777619096 | 14.44° C | 99% | 1014.6 hPa | 0 mm | - | 0 W/m² | - |
* Rain latest hour (hover to see other rain measurements)
** Current wind speed in m/s (hover to see current wind gust speed)